TimeCDT,TemperatureF,Dew PointF,Humidity,Sea Level PressureIn,VisibilityMPH,Wind Direction,Wind SpeedMPH,Gust SpeedMPH,PrecipitationIn,Events,Conditions,WindDirDegrees,DateUTC
12:15 AM,41.0,41.0,100,29.25,7.0,West,16.1,23.0,N/A,,Overcast,280,2013-11-01 05:15:00
12:35 AM,39.2,39.2,100,29.27,7.0,West,12.7,21.9,N/A,,Overcast,270,2013-11-01 05:35:00
12:55 AM,39.2,39.2,100,29.27,7.0,West,13.8,20.7,N/A,,Overcast,280,2013-11-01 05:55:00
1:15 AM,39.2,39.2,100,29.28,4.0,West,15.0,18.4,N/A,,Overcast,270,2013-11-01 06:15:00
1:35 AM,39.2,39.2,100,29.28,5.0,West,13.8,19.6,N/A,,Drizzle,270,2013-11-01 06:35:00
1:55 AM,39.2,39.2,100,29.28,10.0,West,13.8,19.6,N/A,Rain,Light Rain,270,2013-11-01 06:55:00
2:15 AM,39.2,39.2,100,29.29,7.0,West,16.1,19.6,N/A,Rain,Light Rain,260,2013-11-01 07:15:00
2:35 AM,39.2,39.2,100,29.29,10.0,West,12.7,-,0.03,Rain,Light Rain,270,2013-11-01 07:35:00
2:55 AM,39.2,39.2,100,29.30,7.0,West,9.2,-,0.03,,Overcast,260,2013-11-01 07:55:00
3:15 AM,39.2,39.2,100,29.31,10.0,West,11.5,16.1,N/A,,Overcast,270,2013-11-01 08:15:00
3:35 AM,39.2,39.2,100,29.31,10.0,West,11.5,-,N/A,,Overcast,270,2013-11-01 08:35:00
3:55 AM,39.2,39.2,100,29.32,5.0,West,10.4,-,N/A,,Overcast,270,2013-11-01 08:55:00
4:15 AM,39.2,39.2,100,29.33,7.0,West,9.2,-,N/A,,Overcast,270,2013-11-01 09:15:00
4:35 AM,39.2,39.2,100,29.34,7.0,West,9.2,-,N/A,Rain,Light Rain,270,2013-11-01 09:35:00
4:55 AM,39.2,39.2,100,29.35,5.0,West,12.7,17.3,N/A,Rain,Light Rain,270,2013-11-01 09:55:00
5:15 AM,41.0,41.0,100,29.36,5.0,West,11.5,18.4,N/A,,Overcast,280,2013-11-01 10:15:00
5:35 AM,41.0,41.0,100,29.37,4.0,West,9.2,-,N/A,,Overcast,270,2013-11-01 10:35:00
5:45 AM,41.0,41.0,100,29.38,2.0,West,10.4,-,N/A,,Light Drizzle,270,2013-11-01 10:45:00
6:45 AM,41.0,41.0,100,29.40,2.0,West,10.4,-,N/A,,Light Drizzle,270,2013-11-01 11:45:00
7:50 AM,42.8,42.8,100,29.43,3.0,West,11.5,16.1,N/A,,Overcast,280,2013-11-01 12:50:00
8:12 AM,42.8,42.8,100,29.44,10.0,West,9.2,16.1,N/A,,Overcast,280,2013-11-01 13:12:00
8:55 AM,42.8,42.8,100,29.46,10.0,WNW,9.2,16.1,N/A,,Overcast,290,2013-11-01 13:55:00
9:48 AM,41.0,41.0,100,29.48,5.0,WNW,11.5,17.3,N/A,,Overcast,290,2013-11-01 14:48:00
10:45 AM,41.0,41.0,100,29.50,7.0,West,12.7,17.3,N/A,,Overcast,280,2013-11-01 15:45:00
11:26 AM,42.8,42.8,100,29.51,10.0,WNW,12.7,-,N/A,,Overcast,290,2013-11-01 16:26:00
11:45 AM,42.8,42.8,100,29.52,10.0,WNW,12.7,16.1,N/A,,Overcast,290,2013-11-01 16:45:00
12:45 PM,42.8,41.0,93,29.53,10.0,West,11.5,-,N/A,,Overcast,270,2013-11-01 17:45:00
1:45 PM,42.8,39.2,87,29.55,10.0,WNW,11.5,-,N/A,,Overcast,290,2013-11-01 18:45:00
2:45 PM,42.8,39.2,87,29.57,10.0,NW,10.4,-,N/A,,Overcast,320,2013-11-01 19:45:00
3:50 PM,42.8,39.2,87,29.60,10.0,NW,6.9,16.1,N/A,,Overcast,320,2013-11-01 20:50:00
4:45 PM,42.8,39.2,87,29.62,10.0,NNW,9.2,-,N/A,,Overcast,330,2013-11-01 21:45:00
5:45 PM,41.0,39.2,93,29.65,10.0,NW,5.8,-,N/A,,Overcast,310,2013-11-01 22:45:00
6:45 PM,41.0,39.2,93,29.67,10.0,NW,4.6,-,N/A,,Overcast,310,2013-11-01 23:45:00
7:45 PM,41.0,39.2,93,29.69,10.0,NW,5.8,-,N/A,,Overcast,310,2013-11-02 00:45:00
8:50 PM,41.0,39.2,93,29.71,10.0,NW,5.8,-,N/A,,Overcast,310,2013-11-02 01:50:00
9:50 PM,39.2,39.2,100,29.72,5.0,NW,8.1,-,N/A,,Light Drizzle,320,2013-11-02 02:50:00
10:15 PM,39.2,37.4,93,29.73,7.0,NW,5.8,-,N/A,,Overcast,310,2013-11-02 03:15:00
10:35 PM,39.2,39.2,100,29.74,10.0,NW,9.2,-,N/A,,Overcast,320,2013-11-02 03:35:00
10:55 PM,39.2,37.4,93,29.74,7.0,NW,9.2,-,N/A,,Overcast,310,2013-11-02 03:55:00
11:15 PM,39.2,37.4,93,29.74,10.0,NW,6.9,-,N/A,,Overcast,310,2013-11-02 04:15:00
11:35 PM,37.4,37.4,100,29.74,10.0,NW,8.1,-,N/A,,Overcast,320,2013-11-02 04:35:00
11:55 PM,37.4,37.4,100,29.74,10.0,NW,5.8,-,N/A,,Overcast,320,2013-11-02 04:55:00